This demonstration page uses our WeatherBlox Daily Observations layout. Learn more.

Left ArrowRight Arrow

41.12389, -100.76542

Hourly Observations for July 14, 2016

Temp ( °F °C ) Dew Point ( °F °C ) Humidity (%) Winds ( mph kmh ) Pressure ( in mb ) Visibility ( mi km ) Precip ( " mm )
12:53 am 00:53 Clear 61 16.1 53 11.7 75 75 ENE 5 7 29.98 1015 10 16 0.00 0.00
1:53 am 01:53 Clear 59 15 53 11.7 81 81 SSE 3 6 29.99 1016 10 16 0.00 0.00
2:53 am 02:53 Clear 59 15 53 11.7 81 81 Calm 30.02 1017 10 16 0.00 0.00
3:53 am 03:53 Clear 62 16.7 56 13.3 80 80 NE 6 9 29.98 1015 10 16 0.00 0.00
4:53 am 04:53 Mostly Clear 62 16.7 56 13.3 80 80 Calm 30.04 1017 10 16 0.00 0.00
5:53 am 05:53 Clear 61 16.1 57 13.9 87 87 Calm 30.04 1017 10 16 0.00 0.00
6:53 am 06:53 Partly Cloudy 62 16.7 57 13.9 84 84 Calm 30.04 1017 10 16 0.00 0.00
7:04 am 07:04 Mostly Cloudy with Thunderstorms 63 17.2 57 13.9 81 81 Calm 30.06 1018 10 16 0.00 0.00
7:50 am 07:50 Mostly Cloudy with Nearby Thunderstorms 63 17 55 13 77 77 NE 12 19 30.06 1018 10 16 0.00 0.00
7:53 am 07:53 Partly Cloudy 62 16.7 55 12.8 78 78 NE 13 20 30.04 1017 10 16 0.02 0.51
8:00 am 08:00 Partly Cloudy with Nearby Thunderstorms 63 17 55 13 77 77 NE 14 22 30.06 1018 10 16 0.00 0.00
8:15 am 08:15 Partly Cloudy 62 16.7 55 12.8 78 78 NNE 13 20 30.06 1018 10 16 0.00 0.00
8:53 am 08:53 Mostly Cloudy 67 19.4 55 12.8 66 66 NNE 12 19 30.06 1018 10 16 0.00 0.00
9:53 am 09:53 Sunny 70 21.1 56 13.3 61 61 NE 15 24 30.06 1018 10 16 0.00 0.00
10:53 am 10:53 Hazy 75 23.9 55 12.8 50 50 NE 12 19 30.06 1018 3 5 0.00 0.00
11:53 am 11:53 Sunny 80 26.7 54 12.2 41 41 ENE 13 20 30.07 1018 10 16 0.00 0.00
12:53 pm 12:53 Mostly Sunny 83 28.3 54 12.2 37 37 NNE 8 13 30.06 1018 10 16 0.00 0.00
1:53 pm 13:53 Sunny 84 28.9 54 12.2 36 36 NE 13 20 30.06 1018 10 16 0.00 0.00
2:53 pm 14:53 Sunny 85 29.4 53 11.7 33 33 ENE 10 17 30.05 1018 10 16 0.00 0.00
3:53 pm 15:53 Sunny 86 30 49 9.4 28 28 undefined N/A 30.04 1017 10 16 0.00 0.00
4:53 pm 16:53 Sunny 86 30 51 10.6 30 30 ESE 6 9 30.03 1017 10 16 0.00 0.00
5:53 pm 17:53 Mostly Sunny 86 30 52 11 31 31 E 5 7 29.88 1012 10 16 0.00 0.00
6:53 pm 18:53 Mostly Sunny 83 28.3 56 13.3 40 40 ESE 9 15 30.01 1016 10 16 0.00 0.00
7:53 pm 19:53 Sunny 80 26.7 58 14.4 47 47 SE 7 11 30.02 1017 10 16 0.00 0.00
8:53 pm 20:53 Sunny 73 22.8 61 16.1 66 66 ESE 6 9 30.02 1017 10 16 0.00 0.00
9:53 pm 21:53 Clear 66 18.9 59 15 78 78 ESE 6 9 30.04 1017 10 16 0.00 0.00
10:53 pm 22:53 Clear 64 17.8 58 14.4 81 81 ESE 6 9 30.04 1017 10 16 0.00 0.00
11:53 pm 23:53 Clear 63 17.2 59 15 87 87 E 6 9 30.04 1017 10 16 0.00 0.00

Powered by AerisWeather